Weather History for Bloemfontein, South Africa

Change the Weather History Date:

Friday, February 15, 2013

  Actual Average Record
Temperature  
Mean Temperature 78 °F -  
Max Temperature 92 °F 81 °F 92 °F (2013)
Min Temperature 63 °F 54 °F 48 °F (2007)
Cooling Degree Days 12    
Growing Degree Days 28 (Base 50)    
Moisture  
Dew Point 52 °F    
Average Humidity 44    
Maximum Humidity 77    
Minimum Humidity 7    
Precipitation  
Precipitation 0.00 in 0.12 in - ()
Sea Level Pressure  
Sea Level Pressure 30.04 in    
Wind  
Wind Speed 6 mph ()    
Max Wind Speed 16 mph    
Max Gust Speed 24 mph    
Visibility 10.5 miles    
Events      
Averages and records for this station are not official NWS values.
T = Trace of Precipitation, MM = Missing Value Source: Averaged Metar Reports

Daily Weather History Graph

Daily Weather History Graph

Search for Another Location

Airport:

Trip Planner

Search our weather history database for the weather conditions in past years. The results will help you decide how hot, cold, wet, or windy it might be!

Date:

Astronomy

Feb. 15, 2013 Rise Set
Actual Time 5:56 AM SAST 7:01 PM SAST
Civil Twilight 5:31 AM SAST 7:25 PM SAST
Nautical Twilight 5:02 AM SAST 7:54 PM SAST
Astronomical Twilight 4:32 AM SAST 8:24 PM SAST
Moon 10:48 AM SAST (2/15) 10:06 PM SAST (2/15)
Length of Visible Light 13h 54m
Length of Day
13h 04m
Waxing Crescent, 27% of the Moon is Illuminated
Feb 15
Waxing Crescent
Feb 17
First Quarter
Feb 25
Full
Mar 4
Last Quarter
Mar 11
New

Hourly Weather History & Observations

Time (SAST) Temp. Heat Index Dew Point Humidity Pressure Visibility Wind Dir Wind Speed Gust Speed Precip Events Conditions
12:00 AM 69.8 °F - 57.2 °F 64% 30.01 in - Calm Calm - N/A   Unknown
1:00 AM 66.2 °F - 55.4 °F 68% 30.04 in - NE 2.3 mph - N/A   Unknown
2:00 AM 74 °F - 55 °F 40%  in - NW 6.9 mph - -  
2:00 AM 73.4 °F - 53.6 °F 50% 29.98 in 6.2 mi NNW 9.2 mph - N/A   Unknown
3:00 AM 68.0 °F - 55.4 °F 64% 30.04 in - North 6.9 mph - N/A   Unknown
4:00 AM 66.2 °F - 53.6 °F 64% 30.04 in - NNW 3.5 mph - N/A   Unknown
5:00 AM 64 °F - 55 °F 66%  in 19 mi NNE 6.9 mph - -  
5:00 AM 62.6 °F - 55.4 °F 77% 30.04 in - NNE 5.8 mph - N/A   Clear
6:00 AM 66.2 °F - 53.6 °F 64% 30.01 in - ENE 6.9 mph - N/A   Clear
7:00 AM 66.2 °F - 55.4 °F 68% 30.04 in 6.2 mi NE 3.5 mph - N/A   Mostly Cloudy
8:00 AM 74 °F - 55 °F 41%  in 19 mi NNW 6.9 mph - -   Partly Cloudy
8:00 AM 73.4 °F - 53.6 °F 50% 30.09 in 6.2 mi NNW 6.9 mph - N/A   Scattered Clouds
9:00 AM 77.0 °F - 55.4 °F 47% 30.04 in 6.2 mi North 8.1 mph - N/A   Scattered Clouds
10:00 AM 78.8 °F - 55.4 °F 44% 30.04 in 6.2 mi North 6.9 mph - N/A   Scattered Clouds
11:00 AM 83 °F - 52 °F 24%  in 19 mi WNW 6.9 mph - -   Partly Cloudy
11:00 AM 82.4 °F - 51.8 °F 35% 30.09 in - WNW 6.9 mph - N/A   Clear
12:00 PM 84.2 °F 83.0 °F 55.4 °F 37% 30.04 in - WNW 11.5 mph - N/A   Clear
1:00 PM 87.8 °F 86.1 °F 55.4 °F 33% 30.01 in 6.2 mi West 11.5 mph - N/A   Partly Cloudy
2:00 PM 89.6 °F 87.3 °F 53.6 °F 29% 30.01 in 6.2 mi NW 11.5 mph - N/A   Partly Cloudy
3:00 PM 91.4 °F 89.1 °F 53.6 °F 28% 29.98 in 6.2 mi West 10.4 mph 24.2 mph N/A   Scattered Clouds
4:00 PM 91.4 °F - 50.0 °F 24% 29.95 in 6.2 mi WSW 13.8 mph - N/A   Partly Cloudy
5:00 PM 91 °F - 36 °F 7%  in 19 mi WSW 10.4 mph - -   Scattered Clouds
5:00 PM 89.6 °F - 35.6 °F 15% 30.01 in - WSW 10.4 mph - N/A   Clear
6:00 PM 87.8 °F - 44.6 °F 22% 29.98 in - SW 13.8 mph - N/A   Clear
7:00 PM 84.2 °F - 44.6 °F 25% 29.98 in - SW 11.5 mph - N/A   Clear
8:00 PM 80 °F - 44 °F 17%  in 19 mi South 9.2 mph - -   Scattered Clouds
8:00 PM 78.8 °F - 42.8 °F 28% 30.06 in - South 8.1 mph - N/A   Clear
9:00 PM 73.4 °F - 53.6 °F 50% 30.04 in 6.2 mi SSE 16.1 mph - N/A   Unknown
10:00 PM 69.8 °F - 53.6 °F 56% 30.15 in - SE 5.8 mph - N/A   Unknown
11:00 PM 68 °F - 55 °F 54%  in - ESE 8.1 mph - -  
11:00 PM 68.0 °F - 53.6 °F 60% 30.18 in - ESE 6.9 mph - N/A   Unknown